When you browse on this site, cookies collect data to enhance your experience and personalize the content and advertising you see.
Visit our Privacy Policy to learn more. By continuing to use the site, you agree to this use of cookies and data.

Stündliche Wetter Cauquenes

Heute, 4 Juli, Samstag

Zeit Temperatur Niederschläge Wind Luftdruck Luftfeuchtigkeit
00:00 +7°C° 0 mm 0 m/S 747 mmHg 93%
01:00 +6°C° 0 mm 0 m/S 747 mmHg 93%
02:00 +6°C° 0 mm 0 m/S 747 mmHg 92%
03:00 +7°C° 0 mm 1 m/S 747 mmHg 91%
04:00 +7°C° 0 mm 1 m/S 747 mmHg 90%
05:00 +7°C° 0 mm 1 m/S 747 mmHg 89%
06:00 +6°C° 0 mm 1 m/S 747 mmHg 89%
07:00 +6°C° 0 mm 1 m/S 747 mmHg 88%
08:00 +8°C° 0 mm 1 m/S 747 mmHg 84%
09:00 +9°C° 0 mm 1 m/S 747 mmHg 81%
10:00 +10°C° 0 mm 2 m/S 747 mmHg 77%
11:00 +10°C° 0.1 mm 2 m/S 747 mmHg 75%
12:00 +11°C° 0.1 mm 3 m/S 746 mmHg 72%
13:00 +11°C° 0.1 mm 3 m/S 746 mmHg 70%
14:00 +11°C° 0.1 mm 3 m/S 746 mmHg 73%
15:00 +10°C° 0.1 mm 3 m/S 746 mmHg 77%
16:00 +10°C° 0.1 mm 3 m/S 746 mmHg 81%
17:00 +9°C° 2.9 mm 3 m/S 746 mmHg 85%
18:00 +9°C° 2.9 mm 3 m/S 747 mmHg 89%
19:00 +8°C° 2.9 mm 3 m/S 747 mmHg 94%
20:00 +8°C° 0.4 mm 3 m/S 747 mmHg 94%
21:00 +7°C° 0.4 mm 3 m/S 748 mmHg 95%
22:00 +7°C° 0.4 mm 3 m/S 748 mmHg 96%
23:00 +7°C° 0.2 mm 3 m/S 748 mmHg 96%

Morgen, 5 Juli, Sonntag

Zeit Temperatur Niederschläge Wind Luftdruck Luftfeuchtigkeit
00:00 +7°C° 0.2 mm 3 m/S 749 mmHg 96%
01:00 +7°C° 0.2 mm 3 m/S 749 mmHg 96%
02:00 +7°C° 0.4 mm 3 m/S 749 mmHg 96%
03:00 +7°C° 0.4 mm 3 m/S 750 mmHg 95%
04:00 +8°C° 0.4 mm 3 m/S 750 mmHg 95%
05:00 +7°C° 0.1 mm 2 m/S 751 mmHg 96%
06:00 +7°C° 0.1 mm 2 m/S 751 mmHg 96%
07:00 +7°C° 0.1 mm 1 m/S 752 mmHg 96%
08:00 +9°C° 0 mm 1 m/S 752 mmHg 91%
09:00 +10°C° 0 mm 1 m/S 752 mmHg 85%
10:00 +11°C° 0 mm 1 m/S 753 mmHg 80%
11:00 +12°C° 0 mm 1 m/S 753 mmHg 75%
12:00 +12°C° 0 mm 1 m/S 752 mmHg 69%
13:00 +13°C° 0 mm 2 m/S 752 mmHg 64%
14:00 +12°C° 0 mm 2 m/S 751 mmHg 68%
15:00 +12°C° 0 mm 2 m/S 751 mmHg 71%
16:00 +10°C° 0 mm 2 m/S 751 mmHg 75%
17:00 +9°C° 0 mm 2 m/S 751 mmHg 78%
18:00 +8°C° 0 mm 2 m/S 751 mmHg 80%
19:00 +9°C° 0 mm 1 m/S 751 mmHg 83%
20:00 +9°C° 0 mm 1 m/S 750 mmHg 83%
21:00 +8°C° 0 mm 1 m/S 750 mmHg 84%
22:00 +8°C° 0 mm 1 m/S 750 mmHg 85%
23:00 +8°C° 0 mm 1 m/S 750 mmHg 86%

übermorgen, 6 Juli, Montag

Zeit Temperatur Niederschläge Wind Luftdruck Luftfeuchtigkeit
00:00 +7°C° 0 mm 1 m/S 750 mmHg 88%
01:00 +7°C° 0 mm 1 m/S 749 mmHg 90%
02:00 +7°C° 0 mm 1 m/S 749 mmHg 90%
03:00 +7°C° 0 mm 1 m/S 749 mmHg 89%
04:00 +6°C° 0 mm 1 m/S 749 mmHg 89%
05:00 +6°C° 0 mm 1 m/S 748 mmHg 89%
06:00 +7°C° 0 mm 1 m/S 748 mmHg 88%
07:00 +7°C° 0 mm 1 m/S 748 mmHg 88%
08:00 +7°C° 0 mm 1 m/S 748 mmHg 84%
09:00 +8°C° 0 mm 1 m/S 748 mmHg 80%
10:00 +9°C° 0 mm 1 m/S 748 mmHg 75%
11:00 +10°C° 0 mm 1 m/S 748 mmHg 72%
12:00 +11°C° 0 mm 1 m/S 748 mmHg 70%
13:00 +10°C° 0 mm 0 m/S 747 mmHg 67%
14:00 +10°C° 0 mm 0 m/S 748 mmHg 70%
15:00 +10°C° 0 mm 0 m/S 748 mmHg 74%
16:00 +10°C° 0 mm 0 m/S 748 mmHg 77%
17:00 +9°C° 0 mm 0 m/S 748 mmHg 79%
18:00 +8°C° 0 mm 0 m/S 748 mmHg 81%
19:00 +8°C° 0 mm 0 m/S 748 mmHg 82%
20:00 +7°C° 0 mm 0 m/S 749 mmHg 84%
21:00 +7°C° 0 mm 0 m/S 749 mmHg 85%
22:00 +8°C° 0 mm 1 m/S 749 mmHg 86%
23:00 +8°C° 0 mm 1 m/S 749 mmHg 88%

7 Juli, Dienstag

Zeit Temperatur Niederschläge Wind Luftdruck Luftfeuchtigkeit
00:00 +7°C° 0 mm 1 m/S 749 mmHg 89%
01:00 +7°C° 0 mm 1 m/S 749 mmHg 90%
02:00 +7°C° 0 mm 1 m/S 750 mmHg 89%
03:00 +7°C° 0 mm 1 m/S 750 mmHg 89%
04:00 +7°C° 0 mm 1 m/S 750 mmHg 88%
05:00 +7°C° 0 mm 1 m/S 751 mmHg 88%
06:00 +7°C° 0 mm 1 m/S 751 mmHg 87%
07:00 +7°C° 0 mm 0 m/S 752 mmHg 86%
08:00 +9°C° 0 mm 1 m/S 752 mmHg 81%
09:00 +9°C° 0 mm 2 m/S 752 mmHg 77%
10:00 +10°C° 0 mm 2 m/S 752 mmHg 72%
11:00 +11°C° 0 mm 3 m/S 752 mmHg 68%
12:00 +12°C° 0 mm 3 m/S 752 mmHg 65%
13:00 +13°C° 0 mm 4 m/S 752 mmHg 61%
14:00 +12°C° 0.1 mm 3 m/S 752 mmHg 67%
15:00 +12°C° 0.1 mm 3 m/S 752 mmHg 73%
16:00 +11°C° 0.1 mm 3 m/S 752 mmHg 79%
17:00 +10°C° 0 mm 3 m/S 752 mmHg 83%
18:00 +9°C° 0 mm 2 m/S 753 mmHg 86%
19:00 +9°C° 0 mm 2 m/S 753 mmHg 90%
20:00 +8°C° 0 mm 2 m/S 753 mmHg 91%
21:00 +8°C° 0 mm 2 m/S 753 mmHg 92%
22:00 +7°C° 0 mm 2 m/S 753 mmHg 93%
23:00 +7°C° 0 mm 2 m/S 753 mmHg 92%

8 Juli, Mittwoch

Zeit Temperatur Niederschläge Wind Luftdruck Luftfeuchtigkeit
00:00 +7°C° 0 mm 2 m/S 753 mmHg 91%
01:00 +7°C° 0 mm 2 m/S 752 mmHg 90%
02:00 +8°C° 0.1 mm 2 m/S 752 mmHg 90%
03:00 +8°C° 0.1 mm 2 m/S 752 mmHg 89%
04:00 +8°C° 0.1 mm 2 m/S 752 mmHg 89%
05:00 +8°C° 0.1 mm 2 m/S 752 mmHg 90%
06:00 +9°C° 0.1 mm 2 m/S 753 mmHg 91%
07:00 +9°C° 0.1 mm 2 m/S 753 mmHg 92%
08:00 +10°C° 0.1 mm 2 m/S 753 mmHg 91%
09:00 +12°C° 0.1 mm 2 m/S 754 mmHg 89%
10:00 +12°C° 0.1 mm 2 m/S 754 mmHg 87%
11:00 +13°C° 0.1 mm 2 m/S 754 mmHg 85%
12:00 +13°C° 0.1 mm 2 m/S 753 mmHg 82%
13:00 +13°C° 0.1 mm 2 m/S 753 mmHg 80%
14:00 +13°C° 0 mm 2 m/S 753 mmHg 81%
15:00 +12°C° 0 mm 2 m/S 753 mmHg 82%
16:00 +12°C° 0 mm 1 m/S 753 mmHg 83%
17:00 +11°C° 0 mm 1 m/S 753 mmHg 85%
18:00 +8°C° 0 mm 0 m/S 753 mmHg 88%
19:00 +7°C° 0 mm 0 m/S 753 mmHg 91%
20:00 +7°C° 0 mm 0 m/S 753 mmHg 91%
21:00 +7°C° 0 mm 0 m/S 753 mmHg 90%
22:00 +7°C° 0 mm 0 m/S 753 mmHg 90%
23:00 +7°C° 0 mm 0 m/S 753 mmHg 89%

9 Juli, Donnerstag

Zeit Temperatur Niederschläge Wind Luftdruck Luftfeuchtigkeit
00:00 +7°C° 0 mm 0 m/S 753 mmHg 88%
01:00 +7°C° 0 mm 0 m/S 753 mmHg 87%
02:00 +7°C° 0 mm 0 m/S 752 mmHg 86%
03:00 +8°C° 0 mm 1 m/S 752 mmHg 86%
04:00 +9°C° 0 mm 1 m/S 751 mmHg 85%
05:00 +9°C° 0.1 mm 1 m/S 751 mmHg 87%
06:00 +9°C° 0.1 mm 1 m/S 751 mmHg 88%
07:00 +8°C° 0.1 mm 2 m/S 751 mmHg 90%
08:00 +8°C° 0.2 mm 2 m/S 751 mmHg 90%
09:00 +8°C° 0.2 mm 3 m/S 752 mmHg 90%
10:00 +9°C° 0.2 mm 3 m/S 752 mmHg 90%
11:00 +9°C° 0.6 mm 3 m/S 751 mmHg 90%
12:00 +8°C° 0.6 mm 4 m/S 751 mmHg 90%
13:00 +8°C° 0.6 mm 4 m/S 751 mmHg 91%
14:00 +8°C° 0.8 mm 4 m/S 751 mmHg 92%
15:00 +8°C° 0.8 mm 4 m/S 751 mmHg 93%
16:00 +10°C° 0.8 mm 4 m/S 751 mmHg 94%
17:00 +10°C° 0.8 mm 4 m/S 751 mmHg 94%
18:00 +10°C° 0.8 mm 3 m/S 751 mmHg 95%
19:00 +10°C° 0.8 mm 3 m/S 751 mmHg 95%
20:00 +10°C° 0.1 mm 2 m/S 752 mmHg 96%
21:00 +9°C° 0.1 mm 2 m/S 752 mmHg 96%
22:00 +10°C° 0.1 mm 1 m/S 752 mmHg 96%
23:00 +10°C° 0 mm 1 m/S 752 mmHg 96%
Mehr zeigen